DLH9AT EDDF-LJLJ

Flight info

Callsign DLH9AT
Flight time 1h 8m
Altitude 35000
Route CINDY8S/18 CINDY Z74 LAMPU DCT NOMBO Y161 MAH L173 OTT M867 RADIZ DCT LUMUS LUMUS4L
Aircraft A319/M-SDE3FGHIRWY/LB1

Departure

Time 2026-05-05 18:57
Airport Frankfurt Main Airport (EDDF)

Arrival

Time 2026-05-05 20:06
Airport Ljubljana Jože Pučnik Airport (LJLJ)
Time Latitude Longitude Altitude Speed Heading
2026-05-05 17:27 50.04119 8.55822 352 ft 0 kts 160°
2026-05-05 18:45 50.04117 8.55824 352 ft 2 kts 159°
2026-05-05 18:45 50.04090 8.55839 357 ft 6 kts 159°
2026-05-05 18:46 50.04042 8.55895 354 ft 11 kts 112°
2026-05-05 18:46 50.04064 8.55974 355 ft 7 kts 31°
2026-05-05 18:46 50.04075 8.55979 351 ft 0 kts 15°
2026-05-05 18:47 50.04085 8.55980 352 ft 2 kts
2026-05-05 18:47 50.04108 8.55966 352 ft 4 kts 335°
2026-05-05 18:47 50.04134 8.55949 354 ft 5 kts 335°
2026-05-05 18:47 50.04160 8.55932 352 ft 2 kts 339°
2026-05-05 18:48 50.04178 8.55922 355 ft 4 kts 339°
2026-05-05 18:48 50.04213 8.55854 354 ft 15 kts 276°
2026-05-05 18:48 50.04175 8.55674 357 ft 18 kts 249°
2026-05-05 18:48 50.04127 8.55474 351 ft 21 kts 250°
2026-05-05 18:49 50.04076 8.55259 359 ft 21 kts 250°
2026-05-05 18:49 50.04025 8.55046 353 ft 21 kts 249°
2026-05-05 18:49 50.03972 8.54826 355 ft 23 kts 250°
2026-05-05 18:49 50.03916 8.54590 350 ft 24 kts 249°
2026-05-05 18:50 50.03849 8.54346 350 ft 25 kts 239°
2026-05-05 18:50 50.03770 8.54099 349 ft 26 kts 249°
2026-05-05 18:50 50.03706 8.53835 349 ft 26 kts 249°
2026-05-05 18:50 50.03640 8.53565 338 ft 27 kts 249°
2026-05-05 18:51 50.03573 8.53290 336 ft 26 kts 249°
2026-05-05 18:51 50.03529 8.53104 335 ft 15 kts 250°
2026-05-05 18:51 50.03503 8.52994 336 ft 0 kts 250°
2026-05-05 18:53 50.03501 8.52988 334 ft 2 kts 250°
2026-05-05 18:53 50.03490 8.52940 335 ft 6 kts 250°
2026-05-05 18:53 50.03482 8.52909 336 ft 0 kts 247°
2026-05-05 18:54 50.03478 8.52897 337 ft 3 kts 248°
2026-05-05 18:54 50.03470 8.52865 334 ft 2 kts 247°
2026-05-05 18:54 50.03461 8.52831 334 ft 6 kts 247°
2026-05-05 18:55 50.03442 8.52763 334 ft 8 kts 247°
2026-05-05 18:55 50.03434 8.52734 336 ft 1 kts 248°
2026-05-05 18:55 50.03431 8.52722 334 ft 0 kts 248°
2026-05-05 18:55 50.03428 8.52710 332 ft 3 kts 248°
2026-05-05 18:56 50.03410 8.52641 334 ft 11 kts 245°
2026-05-05 18:56 50.03338 8.52594 336 ft 12 kts 179°
2026-05-05 18:56 50.03312 8.52594 336 ft 2 kts 179°
2026-05-05 18:56 50.03149 8.52596 334 ft 61 kts 180°
2026-05-05 18:57 50.02475 8.52604 335 ft 130 kts 179°
2026-05-05 18:57 50.01419 8.52621 640 ft 155 kts 179°
2026-05-05 18:57 50.00351 8.52648 1379 ft 154 kts 180°
2026-05-05 18:57 49.99624 8.52673 1755 ft 162 kts 180°
2026-05-05 18:58 49.98426 8.52711 2276 ft 177 kts 181°
2026-05-05 18:58 49.97156 8.52978 2672 ft 201 kts 161°
2026-05-05 18:58 49.96001 8.54413 2986 ft 232 kts 125°
2026-05-05 18:58 49.95186 8.56639 3816 ft 238 kts 121°
2026-05-05 18:59 49.94399 8.58916 4817 ft 241 kts 116°
2026-05-05 18:59 49.93999 8.61512 5513 ft 261 kts 96°
2026-05-05 18:59 49.93890 8.64445 6151 ft 279 kts 94°
2026-05-05 18:59 49.93573 8.67436 7011 ft 284 kts 110°
2026-05-05 19:00 49.92672 8.70166 7934 ft 286 kts 129°
2026-05-05 19:00 49.91260 8.72316 8889 ft 286 kts 147°
2026-05-05 19:00 49.89633 8.74113 9848 ft 290 kts 145°
2026-05-05 19:00 49.88182 8.76358 10551 ft 306 kts 131°
2026-05-05 19:01 49.87007 8.79282 10898 ft 332 kts 121°
2026-05-05 19:01 49.85844 8.82519 11194 ft 356 kts 121°
2026-05-05 19:01 49.84614 8.85956 11666 ft 371 kts 121°
2026-05-05 19:01 49.83351 8.89487 12412 ft 377 kts 121°
2026-05-05 19:02 49.82063 8.93076 13185 ft 382 kts 121°
2026-05-05 19:02 49.80759 8.96684 13929 ft 387 kts 121°
2026-05-05 19:02 49.79433 9.00331 14644 ft 391 kts 121°
2026-05-05 19:02 49.78090 9.04014 15380 ft 394 kts 121°
2026-05-05 19:03 49.76740 9.07720 16114 ft 397 kts 122°
2026-05-05 19:03 49.75068 9.11089 16823 ft 396 kts 137°
2026-05-05 19:03 49.73043 9.13980 17563 ft 398 kts 140°
2026-05-05 19:03 49.70992 9.16873 18270 ft 401 kts 140°
2026-05-05 19:04 49.68923 9.19783 18889 ft 403 kts 140°
2026-05-05 19:04 49.66832 9.22714 19441 ft 407 kts 140°
2026-05-05 19:04 49.64728 9.25661 20032 ft 410 kts 139°
2026-05-05 19:04 49.62608 9.28626 20621 ft 413 kts 139°
2026-05-05 19:05 49.60482 9.31602 21199 ft 415 kts 139°
2026-05-05 19:05 49.58332 9.34607 21763 ft 418 kts 139°
2026-05-05 19:05 49.56186 9.37631 22300 ft 420 kts 138°
2026-05-05 19:05 49.54044 9.40715 22834 ft 423 kts 137°
2026-05-05 19:06 49.51897 9.43852 23376 ft 426 kts 137°
2026-05-05 19:06 49.49749 9.47005 23826 ft 428 kts 137°
2026-05-05 19:06 49.47584 9.50175 24281 ft 431 kts 137°
2026-05-05 19:06 49.45403 9.53352 24732 ft 433 kts 137°
2026-05-05 19:07 49.43199 9.56539 25172 ft 435 kts 138°
2026-05-05 19:07 49.40985 9.59722 25603 ft 437 kts 138°
2026-05-05 19:07 49.38756 9.62916 26023 ft 439 kts 138°
2026-05-05 19:07 49.36513 9.66125 26428 ft 442 kts 138°
2026-05-05 19:08 49.34259 9.69354 26823 ft 444 kts 138°
2026-05-05 19:08 49.32001 9.72584 27217 ft 446 kts 138°
2026-05-05 19:08 49.29716 9.75837 27610 ft 448 kts 139°
2026-05-05 19:08 49.27425 9.79086 27991 ft 450 kts 139°
2026-05-05 19:09 49.25122 9.82347 28371 ft 452 kts 139°
2026-05-05 19:09 49.22816 9.85606 28887 ft 450 kts 139°
2026-05-05 19:09 49.20519 9.88853 29438 ft 449 kts 139°
2026-05-05 19:09 49.18229 9.92091 29986 ft 447 kts 139°
2026-05-05 19:10 49.15955 9.95304 30466 ft 445 kts 139°
2026-05-05 19:10 49.13685 9.98507 30768 ft 444 kts 139°
2026-05-05 19:10 49.11410 10.01712 30910 ft 445 kts 139°
2026-05-05 19:10 49.09138 10.04905 31371 ft 443 kts 139°
2026-05-05 19:11 49.06927 10.08172 31849 ft 443 kts 136°
2026-05-05 19:11 49.04866 10.11656 32320 ft 443 kts 133°
2026-05-05 19:11 49.02919 10.15218 32746 ft 443 kts 131°
2026-05-05 19:11 49.00985 10.18866 33182 ft 443 kts 131°
2026-05-05 19:12 48.99047 10.22504 33612 ft 442 kts 132°
2026-05-05 19:12 48.97081 10.26108 34008 ft 442 kts 133°
2026-05-05 19:12 48.95086 10.29676 34354 ft 442 kts 133°
2026-05-05 19:12 48.93073 10.33216 34690 ft 443 kts 134°
2026-05-05 19:13 48.91043 10.36752 34838 ft 444 kts 134°
2026-05-05 19:13 48.89004 10.40288 34876 ft 445 kts 134°
2026-05-05 19:13 48.84933 10.47373 34871 ft 446 kts 134°
2026-05-05 19:14 48.80867 10.54484 34871 ft 446 kts 134°
2026-05-05 19:14 48.76801 10.61588 34868 ft 446 kts 135°
2026-05-05 19:15 48.72722 10.68694 34865 ft 447 kts 135°
2026-05-05 19:15 48.68633 10.75789 34849 ft 447 kts 135°
2026-05-05 19:16 48.64534 10.82862 34835 ft 447 kts 135°
2026-05-05 19:16 48.61517 10.88053 34829 ft 447 kts 136°
2026-05-05 19:17 48.57414 10.95119 34838 ft 448 kts 136°
2026-05-05 19:17 48.53304 11.02177 34838 ft 448 kts 136°
2026-05-05 19:18 48.49177 11.09235 34838 ft 448 kts 136°
2026-05-05 19:18 48.45050 11.16277 34839 ft 448 kts 136°
2026-05-05 19:19 48.40919 11.23314 34833 ft 449 kts 137°
2026-05-05 19:19 48.36776 11.30347 34827 ft 449 kts 137°
2026-05-05 19:20 48.32630 11.37364 34822 ft 449 kts 137°
2026-05-05 19:20 48.28545 11.44267 34820 ft 449 kts 137°
2026-05-05 19:21 48.24402 11.51238 34815 ft 450 kts 137°
2026-05-05 19:21 48.20206 11.58284 34818 ft 450 kts 137°
2026-05-05 19:22 48.16031 11.65282 34822 ft 451 kts 137°
2026-05-05 19:22 48.11849 11.72270 34825 ft 451 kts 137°
2026-05-05 19:23 48.07658 11.79251 34823 ft 451 kts 137°
2026-05-05 19:23 48.03489 11.86183 34824 ft 450 kts 137°
2026-05-05 19:24 47.99273 11.93167 34833 ft 450 kts 137°
2026-05-05 19:24 47.95081 12.00102 34828 ft 450 kts 137°
2026-05-05 19:25 47.90876 12.07023 34825 ft 450 kts 137°
2026-05-05 19:25 47.86674 12.13939 34828 ft 450 kts 137°
2026-05-05 19:26 47.82473 12.20848 34825 ft 450 kts 137°
2026-05-05 19:26 47.78283 12.27705 34819 ft 450 kts 137°
2026-05-05 19:27 47.74061 12.34581 34820 ft 451 kts 137°
2026-05-05 19:27 47.69826 12.41458 34818 ft 451 kts 137°
2026-05-05 19:28 47.65672 12.48474 34811 ft 453 kts 136°
2026-05-05 19:28 47.61571 12.55573 34811 ft 453 kts 136°
2026-05-05 19:29 47.57347 12.62498 34810 ft 453 kts 138°
2026-05-05 19:29 47.53045 12.69291 34810 ft 453 kts 138°
2026-05-05 19:30 47.48726 12.76108 34813 ft 454 kts 138°
2026-05-05 19:30 47.44418 12.82961 34824 ft 455 kts 137°
2026-05-05 19:31 47.40111 12.89832 34832 ft 455 kts 137°
2026-05-05 19:31 47.35799 12.96683 34839 ft 456 kts 137°
2026-05-05 19:32 47.31473 13.03515 34848 ft 456 kts 137°
2026-05-05 19:32 47.27143 13.10350 34859 ft 457 kts 137°
2026-05-05 19:33 47.22795 13.17198 34866 ft 457 kts 137°
2026-05-05 19:33 47.18450 13.24031 34874 ft 458 kts 137°
2026-05-05 19:34 47.14089 13.30862 34885 ft 458 kts 137°
2026-05-05 19:35 47.07530 13.41095 34899 ft 459 kts 137°
2026-05-05 19:35 47.03147 13.47900 34796 ft 461 kts 137°
2026-05-05 19:35 47.00930 13.51337 34079 ft 465 kts 137°
2026-05-05 19:36 46.98705 13.54778 33276 ft 465 kts 137°
2026-05-05 19:36 46.96479 13.58223 32479 ft 465 kts 137°
2026-05-05 19:36 46.94259 13.61662 31709 ft 465 kts 137°
2026-05-05 19:36 46.92036 13.65105 30951 ft 465 kts 137°
2026-05-05 19:37 46.89817 13.68539 30219 ft 466 kts 137°
2026-05-05 19:37 46.87584 13.71988 29391 ft 467 kts 137°
2026-05-05 19:37 46.86099 13.74272 28852 ft 468 kts 137°
2026-05-05 19:37 46.83851 13.77726 28024 ft 470 kts 137°
2026-05-05 19:38 46.81587 13.81195 27232 ft 473 kts 137°
2026-05-05 19:38 46.79311 13.84675 26455 ft 476 kts 137°
2026-05-05 19:38 46.77022 13.88178 25705 ft 479 kts 137°
2026-05-05 19:38 46.74723 13.91700 24979 ft 481 kts 137°
2026-05-05 19:39 46.72422 13.95225 24273 ft 484 kts 137°
2026-05-05 19:39 46.70098 13.98783 23571 ft 483 kts 136°
2026-05-05 19:39 46.67790 14.02311 22763 ft 479 kts 136°
2026-05-05 19:39 46.65500 14.05797 21968 ft 475 kts 136°
2026-05-05 19:40 46.63224 14.09248 21190 ft 470 kts 136°
2026-05-05 19:40 46.60968 14.12659 20430 ft 466 kts 137°
2026-05-05 19:40 46.58544 14.15715 19689 ft 458 kts 147°
2026-05-05 19:40 46.55846 14.18100 18972 ft 451 kts 155°
2026-05-05 19:41 46.53085 14.20241 18272 ft 448 kts 155°
2026-05-05 19:41 46.50345 14.22365 17552 ft 445 kts 154°
2026-05-05 19:41 46.47628 14.24471 16848 ft 439 kts 154°
2026-05-05 19:41 46.44962 14.26540 16165 ft 432 kts 154°
2026-05-05 19:42 46.42320 14.28589 15491 ft 428 kts 154°
2026-05-05 19:42 46.39702 14.30618 14865 ft 425 kts 154°
2026-05-05 19:42 46.37107 14.32631 14223 ft 423 kts 154°
2026-05-05 19:42 46.34517 14.34635 13565 ft 421 kts 154°
2026-05-05 19:43 46.31943 14.36622 12861 ft 418 kts 155°
2026-05-05 19:43 46.29390 14.38588 12170 ft 414 kts 155°
2026-05-05 19:43 46.26862 14.40532 11484 ft 407 kts 156°
2026-05-05 19:43 46.24428 14.42470 10755 ft 395 kts 151°
2026-05-05 19:44 46.22372 14.45045 10044 ft 387 kts 139°
2026-05-05 19:44 46.20511 14.47783 9290 ft 376 kts 138°
2026-05-05 19:44 46.18727 14.50465 8590 ft 364 kts 138°
2026-05-05 19:44 46.17012 14.53062 7925 ft 352 kts 138°
2026-05-05 19:45 46.15357 14.55564 7430 ft 337 kts 138°
2026-05-05 19:45 46.13784 14.57963 6967 ft 321 kts 138°
2026-05-05 19:45 46.12288 14.60258 6506 ft 308 kts 138°
2026-05-05 19:45 46.10830 14.62436 6029 ft 296 kts 140°
2026-05-05 19:46 46.09407 14.64494 5616 ft 284 kts 140°
2026-05-05 19:46 46.08045 14.66456 5297 ft 269 kts 140°
2026-05-05 19:46 46.06771 14.68320 5042 ft 255 kts 137°
2026-05-05 19:46 46.05955 14.70542 4800 ft 252 kts 104°
2026-05-05 19:47 46.06030 14.72996 4541 ft 245 kts 70°
2026-05-05 19:47 46.06955 14.74969 4342 ft 236 kts 35°
2026-05-05 19:47 46.08383 14.75874 4157 ft 217 kts 359°
2026-05-05 19:47 46.09773 14.75471 4039 ft 198 kts 322°
2026-05-05 19:48 46.10642 14.74050 4011 ft 188 kts 291°
2026-05-05 19:48 46.10979 14.72265 4006 ft 182 kts 279°
2026-05-05 19:48 46.11235 14.70498 4001 ft 179 kts 277°
2026-05-05 19:48 46.11487 14.68740 4005 ft 179 kts 277°
2026-05-05 19:49 46.11748 14.66980 3996 ft 180 kts 281°
2026-05-05 19:49 46.12295 14.65363 4003 ft 185 kts 301°
2026-05-05 19:49 46.13064 14.63875 3952 ft 185 kts 302°
2026-05-05 19:49 46.13834 14.62383 3799 ft 180 kts 302°
2026-05-05 19:50 46.14566 14.60962 3547 ft 177 kts 302°
2026-05-05 19:50 46.15296 14.59543 3318 ft 175 kts 302°
2026-05-05 19:50 46.16020 14.58137 3081 ft 173 kts 302°
2026-05-05 19:50 46.16719 14.56778 2835 ft 165 kts 303°
2026-05-05 19:51 46.17372 14.55508 2606 ft 149 kts 303°
2026-05-05 19:51 46.17962 14.54359 2385 ft 138 kts 304°
2026-05-05 19:51 46.18522 14.53248 2138 ft 136 kts 306°
2026-05-05 19:51 46.19080 14.52150 1940 ft 135 kts 305°
2026-05-05 19:52 46.19638 14.51074 1784 ft 133 kts 305°
2026-05-05 19:52 46.20191 14.50017 1618 ft 132 kts 305°
2026-05-05 19:52 46.20728 14.48961 1466 ft 129 kts 304°
2026-05-05 19:52 46.21270 14.47905 1332 ft 133 kts 304°
2026-05-05 19:53 46.21815 14.46840 1249 ft 123 kts 305°
2026-05-05 19:53 46.22318 14.45813 1537 ft 131 kts 303°
2026-05-05 19:53 46.22855 14.44726 2195 ft 134 kts 305°
2026-05-05 19:53 46.23406 14.43582 2687 ft 147 kts 303°
2026-05-05 19:54 46.24023 14.42273 2952 ft 170 kts 303°
2026-05-05 19:54 46.24675 14.40743 3363 ft 186 kts 288°
2026-05-05 19:54 46.24661 14.38888 3876 ft 194 kts 250°
2026-05-05 19:54 46.23782 14.37388 4487 ft 205 kts 213°
2026-05-05 19:55 46.22373 14.36901 5080 ft 216 kts 185°
2026-05-05 19:55 46.20894 14.37117 5311 ft 215 kts 172°
2026-05-05 19:55 46.19562 14.38202 5569 ft 226 kts 146°
2026-05-05 19:55 46.18392 14.39736 5821 ft 228 kts 142°
2026-05-05 19:56 46.17239 14.41324 5977 ft 230 kts 141°
2026-05-05 19:56 46.16022 14.42806 5998 ft 226 kts 156°
2026-05-05 19:56 46.14573 14.43470 6006 ft 215 kts 180°
2026-05-05 19:56 46.13090 14.43656 6012 ft 214 kts 182°
2026-05-05 19:57 46.11604 14.43839 6009 ft 214 kts 182°
2026-05-05 19:57 46.10124 14.44025 6008 ft 214 kts 182°
2026-05-05 19:57 46.08640 14.44215 6011 ft 213 kts 181°
2026-05-05 19:57 46.07168 14.44402 6009 ft 212 kts 181°
2026-05-05 19:58 46.05697 14.44610 6005 ft 215 kts 178°
2026-05-05 19:58 46.04328 14.45580 6010 ft 231 kts 143°
2026-05-05 19:58 46.03490 14.47592 6009 ft 242 kts 108°
2026-05-05 19:58 46.03484 14.50019 6012 ft 247 kts 80°
2026-05-05 19:59 46.03884 14.52419 6011 ft 247 kts 75°
2026-05-05 19:59 46.04315 14.54810 5803 ft 247 kts 75°
2026-05-05 19:59 46.04741 14.57193 5504 ft 244 kts 75°
2026-05-05 19:59 46.05173 14.59546 5213 ft 242 kts 75°
2026-05-05 20:00 46.05611 14.61884 4912 ft 242 kts 75°
2026-05-05 20:00 46.06048 14.64221 4612 ft 241 kts 75°
2026-05-05 20:00 46.06479 14.66547 4361 ft 238 kts 75°
2026-05-05 20:00 46.07183 14.68632 4140 ft 228 kts 45°
2026-05-05 20:01 46.08448 14.69741 4025 ft 212 kts
2026-05-05 20:01 46.09853 14.69644 4012 ft 200 kts 339°
2026-05-05 20:01 46.10985 14.68689 4008 ft 184 kts 299°
2026-05-05 20:01 46.11483 14.67034 4001 ft 180 kts 288°
2026-05-05 20:02 46.12197 14.65516 4008 ft 185 kts 302°
2026-05-05 20:02 46.12966 14.64056 3971 ft 182 kts 301°
2026-05-05 20:02 46.13718 14.62606 3798 ft 178 kts 302°
2026-05-05 20:02 46.14443 14.61202 3589 ft 173 kts 302°
2026-05-05 20:03 46.15159 14.59810 3361 ft 172 kts 302°
2026-05-05 20:03 46.15870 14.58427 3129 ft 171 kts 302°
2026-05-05 20:03 46.16580 14.57046 2883 ft 172 kts 303°
2026-05-05 20:03 46.17274 14.55699 2637 ft 161 kts 303°
2026-05-05 20:04 46.17902 14.54477 2412 ft 144 kts 304°
2026-05-05 20:04 46.18476 14.53340 2174 ft 138 kts 304°
2026-05-05 20:04 46.19044 14.52238 1957 ft 135 kts 306°
2026-05-05 20:04 46.19593 14.51158 1776 ft 132 kts 305°
2026-05-05 20:05 46.20136 14.50106 1620 ft 129 kts 304°
2026-05-05 20:05 46.20675 14.49076 1478 ft 131 kts 305°
2026-05-05 20:05 46.21212 14.48023 1352 ft 130 kts 304°
2026-05-05 20:05 46.21747 14.46982 1249 ft 124 kts 304°
2026-05-05 20:06 46.22181 14.46130 1248 ft 83 kts 307°
2026-05-05 20:06 46.22449 14.45612 1243 ft 43 kts 306°
2026-05-05 20:06 46.22587 14.45430 1246 ft 25 kts 330°
2026-05-05 20:06 46.22730 14.45339 1248 ft 20 kts 348°
2026-05-05 20:07 46.22829 14.45320 1254 ft 13 kts
2026-05-05 20:07 46.22903 14.45381 1251 ft 11 kts 36°
2026-05-05 20:07 46.22949 14.45406 1260 ft 4 kts 348°
2026-05-05 20:07 46.22964 14.45391 1260 ft 3 kts 319°
2026-05-05 20:08 46.22995 14.45342 1258 ft 8 kts 330°
2026-05-05 20:08 46.23033 14.45360 1263 ft 4 kts 34°
2026-05-05 20:08 46.23047 14.45374 1262 ft 2 kts 34°
2026-05-05 20:08 46.23049 14.45376 1261 ft 0 kts 34°